STOCKHOLM / BROMMA current weather conditions

sailwx.info

Wind from 100 at 9 knots

Air temperature 4.0° C
Visibility: greater than 5.4 NM
Dewpoint -2.0° C

Last reported at 2014-Oct-22 23:20 UTC.
Time now 2014-Oct-23 00:39 UTC

Location: N 59°21' E 017°57'.
View on Google Maps.

See reports from other nearby stations

  
Tides and Currents Weather Stations Pressure Air Temp Water Temp Dewpoint Dewpoint Depression Visibility Wind Speed Wind Dir Waves Ship Positions
date/time (UTC)wind fromknots sea level pressurealtimeterstation pressurevisibilityair tempwater tempwave heightnotes
2014-Oct-22 23:20 100 9 5.4 4.0
2014-Oct-22 22:50 110 10 5.4 4.0
2014-Oct-22 22:20 120 12 5.4 4.0
2014-Oct-22 21:50 100 9 5.4 4.0 Light drizzle.
2014-Oct-22 21:20 080 7 5.4 4.0
2014-Oct-22 20:50 080 8 5.4 4.0
2014-Oct-22 20:20 090 10 5.4 4.0
2014-Oct-22 19:50 090 9 5.4 4.0
2014-Oct-22 19:20 100 10 5.4 4.0
2014-Oct-22 18:50 100 9 5.4 4.0
2014-Oct-22 18:20 090 8 5.4 4.0
2014-Oct-22 17:50 100 10 5.4 4.0
2014-Oct-22 17:20 090 9 5.4 4.0
2014-Oct-22 16:50 080 9 5.4 4.0
2014-Oct-22 16:20 070 10 5.4 4.0
2014-Oct-22 15:50 090 10 5.4 4.0
2014-Oct-22 15:20 090 11 5.4 4.0
2014-Oct-22 14:50 100 12 5.4 4.0
2014-Oct-22 14:20 090 10 5.4 4.0
2014-Oct-22 13:50 090 11 5.4 4.0
2014-Oct-22 13:20 070 10 5.4 4.0
2014-Oct-22 12:50 070 10 5.4 4.0
2014-Oct-22 12:20 090 10 5.4 4.0
2014-Oct-22 11:50 080 9 5.4 5.0
2014-Oct-22 11:20 080 11 5.4 5.0
2014-Oct-22 10:50 080 12 5.4 4.0
2014-Oct-22 10:20 080 12 5.4 4.0
2014-Oct-22 09:50 100 14 5.4 4.0
2014-Oct-22 09:20 080 11 gusting 20 5.4 4.0
2014-Oct-22 08:50 080 13 5.4 4.0
2014-Oct-22 08:20 080 10 gusting 20 5.4 4.0
2014-Oct-22 07:50 080 13 5.4 4.0
2014-Oct-22 07:20 080 13 5.4 4.0
2014-Oct-22 06:50 080 13 5.4 4.0
2014-Oct-22 06:20 080 11 5.4 4.0
2014-Oct-22 05:50 080 10 5.4 4.0
2014-Oct-22 05:20 090 12 5.4 4.0
2014-Oct-22 04:50 080 12 5.4 4.0
2014-Oct-22 04:20 080 12 5.4 4.0
2014-Oct-22 03:50 090 12 5.4 5.0
2014-Oct-22 03:20 080 12 gusting 22 5.4 5.0
2014-Oct-22 02:50 080 14 5.4 5.0
2014-Oct-22 02:20 080 11 5.4 5.0
2014-Oct-22 01:50 080 13 5.4 5.0
2014-Oct-22 01:20 080 11 5.4 5.0
2014-Oct-22 00:50 080 11 5.4 5.0
2014-Oct-22 00:20 090 12 5.4 5.0 Light rain.
2014-Oct-21 23:50 090 14 3.2 5.0 Light rain.
2014-Oct-21 23:20 090 12 5.4 6.0
2014-Oct-21 22:50 090 12 5.4 6.0
2014-Oct-21 22:20 090 13 5.4 6.0
2014-Oct-21 21:50 080 10 5.4 6.0
2014-Oct-21 21:20 090 12 5.4 6.0
2014-Oct-21 20:50 100 13 5.4 7.0
2014-Oct-21 20:20 100 12 5.4 7.0
2014-Oct-21 19:50 100 11 5.4 7.0
2014-Oct-21 19:20 100 15 5.4 7.0
2014-Oct-21 18:50 100 11 5.4 7.0
2014-Oct-21 18:20 100 13 5.4 7.0 Light drizzle.
2014-Oct-21 17:50 100 12 5.4 7.0
2014-Oct-21 17:20 100 11 4.3 7.0 Mist.
2014-Oct-21 16:50 090 10 2.7 7.0 Light drizzle.
2014-Oct-21 16:20 100 9 3.2 7.0 Mist.
2014-Oct-21 15:50 100 10 2.2 7.0 Light rain.
2014-Oct-21 15:20 110 10 2.7 8.0 Mist.
2014-Oct-21 14:50 140 4 2.2 7.0 Light drizzle. Mist.
2014-Oct-21 14:20 110 4 5.4 7.0
2014-Oct-21 13:50 110 7 2.4 7.0 Mist.
2014-Oct-21 13:20 090 9 2.7 8.0 Light rain.
2014-Oct-21 12:50 070 5 5.4 8.0
2014-Oct-21 12:20 090 5 5.4 8.0 Showers in the vicinity.
2014-Oct-21 11:50 070 7 5.4 8.0
2014-Oct-21 11:20 070 4 5.4 8.0
2014-Oct-21 10:50 050 6 5.4 8.0
2014-Oct-21 10:20 040 5 5.4 7.0
2014-Oct-21 09:50 040 5 5.4 7.0
2014-Oct-21 09:20 040 5 5.4 7.0
2014-Oct-21 08:50 070 4 5.4 7.0
2014-Oct-21 08:20 040 5 5.4 7.0
2014-Oct-21 07:50 050 4 5.4 6.0
2014-Oct-21 07:20 050 4 5.4 6.0
2014-Oct-21 06:50 050 4 5.4 6.0
2014-Oct-21 06:20 020 5 5.4 6.0
2014-Oct-21 05:50 010 3 5.4 6.0
2014-Oct-21 05:20 020 4 5.4 6.0
2014-Oct-21 04:50 020 4 5.4 6.0
2014-Oct-21 04:20 040 4 5.4 6.0
2014-Oct-21 03:50 030 5 5.4 6.0
2014-Oct-21 03:20 020 5 5.4 6.0
2014-Oct-21 02:50 020 4 5.4 6.0
2014-Oct-21 02:20 020 4 5.4 6.0
2014-Oct-21 01:50 010 4 5.4 7.0
2014-Oct-21 01:20 350 4 5.4 7.0
2014-Oct-21 00:50 350 5 5.4 7.0
2014-Oct-21 00:20 340 5 5.4 7.0